STARLINK-36623, 67644

Orbit data source: Space-Track

STARLINK-36623, 67644 is a payload satellite owned by SpaceX/Seattle (US) in LEO that was launched on Fri, 30 Jan 2026 UTC via an FALCON 9 launch vehicle from the Air Force Eastern Test Range (AFETR). Payload-class satellites include a variety of spacecraft equipped with specific instruments for various scientific and technological missions. These include communications satellites like Starlink; space stations such as the ISS; scientific satellites like the Hubble; Earth observation satellites from companies like Planet Labs, Umbra, and HawkEye 360; GPS; miniature CubeSats for education and research; and military/defense satellites.

Loading next visibility...
Identifier
67644, 2026-020AD
Orbit
LEO
Country
Flag of USUS
Related business
Manufacturer
SpaceX/Seattle
Mission
Operational Commercial Communications
Bus & Motor
STARLINK V2MO, Unknown motor
Mass
575 kg wet, ~530 kg dry
Launch date (UTC)
2026-01-30 (3 months ago)
Launch vehicle
FALCON 9
Launch site
Air Force Eastern Test Range (AFETR)
Object type
Payload
Rocket body
Debris
Shape & HBR
Box + 2 Pan, 17.7 m
Radar Cross Section
36.964 m²

Expand to show TLE details & history
Last TLE update: 10 hours ago

TLE from 10 hours ago
0 STARLINK-36623
1 67644U 26020AD  26112.08434237  .00024369  00000-0  89108-3 0  9993
2 67644  43.0056 254.4051 0000992 280.1893  79.8847 15.27619878 12751
Epoch: 2026-04-22T02:01Z
TLE epoch observation values (Epoch: 2026-04-22T02:01:27.180Z)
Latitude
-0.00002°
Longitude
13.89098°
Altitude
482.586 km
Speed
7.626 km/s
True Right ascension
16h 57m 37s
True Declination
0° 00' 00"
Sunlit
Object was in full shadow at epoch
Visualization orbit readout
Latitude
Unknown
Longitude
Unknown
Altitude
Unknown
Speed
Unknown
Apparent Right ascension
Unknown
Apparent Declination
Unknown
Sunlit
N/A
Visualization observer readout
Local Sidereal Time
19:09:05
Azimuth
Unknown
Elevation
Unknown
Doppler factor
Unknown
Orbital elements
Apogee altitude
485.555 km
Perigee altitude
484.193 km
Semi-major axis
6,863.011 km
Eccentricity
0.0001
Inclination
43.0056°
RAAN
254.4051°
Arg. of periapsis
280.1893°
True anomaly
79.89589°
Mean anomaly
79.8847°
Eccentric anomaly
79.8903°
Mean motion
3.81743 °/min
Orbital period
94.3 mins
BSTAR
0.00089108
Loading maneuver chart data...
Computing Atmospheric mass density...
Loading historical data...
Loading historical data...
Loading historical data...
Loading historical data...
Loading historical data...
Loading historical data...
Loading historical data...

Documentation

Showing up to 5 results
|